Weather History for Hamilton, OH

Change the Weather History Date:

Wednesday, October 23, 2013

  Actual Average (KCVG) Record (KCVG)
Temperature  
Mean Temperature 40 °F 54 °F  
Max Temperature 48 °F 64 °F 85 °F (1947)
Min Temperature 35 °F 43 °F 25 °F (1997)
Degree Days  
Heating Degree Days 24 12  
Month to date heating degree days 199  
Since 1 July heating degree days 257  
Cooling Degree Days 0 0  
Month to date cooling degree days 16  
Year to date cooling degree days 1121  
Moisture  
Dew Point 35 °F    
Average Humidity 80    
Maximum Humidity 93    
Minimum Humidity 49    
Precipitation  
Precipitation 0.17 in 0.10 in 2.69 in (2007)
Month to date precipitation 2.45  
Year to date precipitation 34.87  
Snow  
Snow 0.00 in 0.00 in 0.00 in ()
Month to date snowfall 0.2  
Since 1 July snowfall 0.2  
Since 1 September snowfall 0.2  
Snow Depth -    
Sea Level Pressure  
Sea Level Pressure 29.92 in    
Wind  
Wind Speed 8 mph (NNW)    
Max Wind Speed 16 mph    
Max Gust Speed 22 mph    
Visibility 9 miles    
Events Rain    
T = Trace of Precipitation, MM = Missing Value Source: NWS Daily Summary

Daily Weather History Graph

Daily Weather History Graph

Search for Another Location

Airport:

Trip Planner

Search our weather history database for the weather conditions in past years. The results will help you decide how hot, cold, wet, or windy it might be!

Date:

Astronomy

Oct. 23, 2013 Rise Set
Actual Time 7:56 AM EDT 6:47 PM EDT
Civil Twilight 7:29 AM EDT 7:14 PM EDT
Nautical Twilight 6:57 AM EDT 7:46 PM EDT
Astronomical Twilight 6:26 AM EDT 8:17 PM EDT
Moon 10:18 PM EDT (10/23) 12:12 PM EDT (10/23)
Length of Visible Light 11h 45m
Length of Day
10h 51m
Waning Gibbous, 79% of the Moon is Illuminated
Oct 23
Waning Gibbous
Oct 26
Last Quarter
Nov 3
New
Nov 10
First Quarter
Nov 17
Full

Hourly Weather History & Observations

Time (EDT) Temp. Windchill Dew Point Humidity Pressure Visibility Wind Dir Wind Speed Gust Speed Precip Events Conditions
12:53 AM 44.1 °F 41.5 °F 39.0 °F 82% 29.85 in 10.0 mi ENE 4.6 mph - N/A   Overcast
1:53 AM 43.0 °F 40.3 °F 37.9 °F 82% 29.82 in 10.0 mi East 4.6 mph - 0.00 in Rain Light Rain
2:53 AM 43.0 °F - 39.0 °F 86% 29.81 in 10.0 mi Calm Calm - 0.00 in Rain Light Rain
3:53 AM 43.0 °F 39.5 °F 39.0 °F 86% 29.78 in 6.0 mi East 5.8 mph - 0.05 in Rain Light Rain
4:53 AM 42.1 °F 37.7 °F 39.0 °F 89% 29.77 in 10.0 mi NE 6.9 mph - 0.01 in   Overcast
5:33 AM 42.8 °F 37.0 °F 39.2 °F 87% 29.77 in 4.0 mi NNE 10.4 mph - 0.05 in Rain Rain
5:53 AM 42.1 °F 35.7 °F 39.9 °F 92% 29.77 in 8.0 mi NNE 11.5 mph - 0.05 in Rain Light Rain
6:18 AM 42.8 °F 36.6 °F 39.2 °F 87% 29.78 in 7.0 mi North 11.5 mph - 0.00 in Rain Light Rain
6:51 AM 39.2 °F 30.5 °F 37.4 °F 93% 29.80 in 6.0 mi North 16.1 mph - 0.03 in Rain Light Rain
6:53 AM 39.0 °F 30.3 °F 36.0 °F 89% 29.81 in 6.0 mi North 16.1 mph 21.9 mph 0.03 in Rain Light Rain
7:17 AM 37.4 °F 29.3 °F 35.6 °F 93% 29.81 in 10.0 mi NNE 12.7 mph - 0.00 in Rain Light Rain
7:53 AM 37.9 °F 30.9 °F 36.0 °F 93% 29.84 in 7.0 mi North 10.4 mph - 0.01 in Rain Light Rain
8:10 AM 37.4 °F 30.8 °F 35.6 °F 93% 29.85 in 8.0 mi North 9.2 mph - 0.00 in Rain Light Rain
8:53 AM 37.0 °F 31.6 °F 35.1 °F 93% 29.89 in 7.0 mi North 6.9 mph - 0.01 in Rain Light Rain
9:53 AM 37.9 °F 32.1 °F 36.0 °F 93% 29.91 in 10.0 mi NW 8.1 mph - 0.01 in Rain Light Rain
10:07 AM 39.2 °F 33.6 °F 35.6 °F 87% 29.91 in 10.0 mi NNW 8.1 mph - 0.00 in Rain Light Rain
10:53 AM 39.9 °F 33.4 °F 37.0 °F 89% 29.95 in 10.0 mi NW 10.4 mph - 0.00 in   Overcast
11:27 AM 41.0 °F 34.7 °F 37.4 °F 87% 29.95 in 10.0 mi WNW 10.4 mph 18.4 mph N/A   Overcast
11:53 AM 42.1 °F 35.7 °F 36.0 °F 79% 29.96 in 10.0 mi NW 11.5 mph - N/A   Overcast
12:53 PM 43.0 °F 37.2 °F 36.0 °F 76% 29.98 in 10.0 mi NW 10.4 mph - N/A   Overcast
1:53 PM 45.0 °F 39.3 °F 36.0 °F 71% 29.98 in 10.0 mi WNW 11.5 mph - N/A   Overcast
2:09 PM 44.6 °F 39.2 °F 35.6 °F 71% 29.97 in 10.0 mi WNW 10.4 mph - N/A   Overcast
2:53 PM 45.0 °F 38.5 °F 35.1 °F 68% 29.99 in 10.0 mi WNW 13.8 mph - N/A   Overcast
3:53 PM 46.9 °F - 33.1 °F 59% 29.99 in 10.0 mi WNW 10.4 mph - N/A   Overcast
4:53 PM 46.9 °F - 30.0 °F 52% 30.00 in 10.0 mi West 6.9 mph - N/A   Overcast
5:53 PM 46.0 °F 43.1 °F 28.9 °F 51% 30.02 in 10.0 mi West 5.8 mph - N/A   Overcast
6:53 PM 45.0 °F 41.8 °F 27.0 °F 49% 30.03 in 10.0 mi West 5.8 mph - N/A   Overcast
7:53 PM 42.1 °F 39.2 °F 28.0 °F 58% 30.05 in 10.0 mi West 4.6 mph - N/A   Mostly Cloudy
8:53 PM 37.9 °F - 28.9 °F 70% 30.06 in 10.0 mi Calm Calm - N/A   Partly Cloudy
9:53 PM 35.1 °F - 30.0 °F 82% 30.07 in 10.0 mi Calm Calm - N/A   Partly Cloudy
10:53 PM 37.9 °F - 34.0 °F 86% 30.07 in 10.0 mi Calm Calm - N/A   Overcast
11:53 PM 39.9 °F 34.5 °F 33.1 °F 77% 30.08 in 10.0 mi West 8.1 mph - 0.00 in Rain Light Rain